This is the latest recevied weather packets stored in our database for station/object KE0TNI-13. If no packets are shown the sender has not sent any weather packets the latest 10 day(s).
| Time | Temp. | Humidity | Pressure | Rain* | Wind** | Luminosity | Snow |
|---|---|---|---|---|---|---|---|
| 1777855899 | 12.78° C | 29% | 1018.2 hPa | 0 mm | - | 41 W/m² | - |
| 1777855598 | 12.78° C | 27% | 1018.4 hPa | 0 mm | - | 59 W/m² | - |
| 1777855294 | 12.78° C | 26% | 1018.3 hPa | 0 mm | - | 61 W/m² | - |
| 1777854991 | 12.78° C | 26% | 1018 hPa | 0 mm | - | 64 W/m² | - |
| 1777854687 | 12.78° C | 27% | 1018.3 hPa | 0 mm | - | 96 W/m² | - |
| 1777854384 | 12.78° C | 27% | 1018.4 hPa | 0 mm | - | 106 W/m² | - |
| 1777854082 | 12.78° C | 26% | 1018.4 hPa | 0 mm | - | 121 W/m² | - |
| 1777853780 | 12.22° C | 27% | 1018.3 hPa | 0 mm | - | 82 W/m² | - |
| 1777853475 | 12.22° C | 27% | 1018.3 hPa | 0 mm | - | 85 W/m² | - |
| 1777853173 | 12.22° C | 26% | 1018.3 hPa | 0 mm | - | 49 W/m² | - |
| 1777852870 | 12.78° C | 24% | 1018.2 hPa | 0 mm | - | 48 W/m² | - |
| 1777852568 | 12.78° C | 24% | 1018.4 hPa | 0 mm | - | 65 W/m² | - |
| 1777852265 | 12.78° C | 25% | 1018.2 hPa | 0 mm | - | 68 W/m² | - |
| 1777851963 | 12.78° C | 24% | 1018.2 hPa | 0 mm | - | 76 W/m² | - |
| 1777851660 | 12.78° C | 25% | 1018.3 hPa | 0 mm | - | 77 W/m² | - |
| 1777851357 | 13.33° C | 24% | 1017.9 hPa | 0 mm | - | 75 W/m² | - |
| 1777851052 | 13.33° C | 24% | 1017.9 hPa | 0 mm | - | 80 W/m² | - |
| 1777850750 | 13.33° C | 25% | 1018 hPa | 0 mm | - | 74 W/m² | - |
| 1777850447 | 13.33° C | 25% | 1017.9 hPa | 0 mm | - | 71 W/m² | - |
| 1777850145 | 13.89° C | 24% | 1018.2 hPa | 0 mm | - | 75 W/m² | - |
| 1777849841 | 13.89° C | 23% | 1017.9 hPa | 0 mm | - | 80 W/m² | - |
| 1777849538 | 13.89° C | 23% | 1018.3 hPa | 0 mm | - | 105 W/m² | - |
| 1777849236 | 13.89° C | 24% | 1017.9 hPa | 0 mm | - | 116 W/m² | - |
| 1777848933 | 13.89° C | 24% | 1018 hPa | 0 mm | - | 127 W/m² | - |
| 1777848633 | 13.89° C | 25% | 1018.3 hPa | 0 mm | - | 135 W/m² | - |
* Rain latest hour (hover to see other rain measurements)
** Current wind speed in m/s (hover to see current wind gust speed)